Weather History for Coeur d'Alene, ID

Change the Weather History Date:

Saturday, October 20, 2012

  Actual Average Record
Temperature  
Mean Temperature 43 °F -  
Max Temperature 51 °F 52 °F 64 °F (2002)
Min Temperature 35 °F 33 °F 26 °F (1999)
Degree Days  
Heating Degree Days 22    
Moisture  
Dew Point 30 °F    
Average Humidity 58    
Maximum Humidity 81    
Minimum Humidity 30    
Precipitation  
Precipitation 0.00 in - - ()
Sea Level Pressure  
Sea Level Pressure 29.75 in    
Wind  
Wind Speed 14 mph (WSW)    
Max Wind Speed 24 mph    
Max Gust Speed 31 mph    
Visibility 10 miles    
Events      
Averages and records for this station are not official NWS values.
T = Trace of Precipitation, MM = Missing Value Source: NWS Daily Summary

Daily Weather History Graph

Daily Weather History Graph

Search for Another Location

Airport:

Trip Planner

Search our weather history database for the weather conditions in past years. The results will help you decide how hot, cold, wet, or windy it might be!

Date:

Astronomy

Oct. 20, 2012 Rise Set
Actual Time 7:14 AM PDT 5:48 PM PDT
Civil Twilight 6:43 AM PDT 6:20 PM PDT
Nautical Twilight 6:07 AM PDT 6:55 PM PDT
Astronomical Twilight 5:31 AM PDT 7:31 PM PDT
Moon 1:06 PM PDT (10/20) 10:28 PM PDT (10/20)
Length of Visible Light 11h 37m
Length of Day
10h 34m
Waxing Crescent, 35% of the Moon is Illuminated
Oct 20
Waxing Crescent
Oct 21
First Quarter
Oct 29
Full
Nov 6
Last Quarter
Nov 13
New

Hourly Weather History & Observations

Time (PDT) Temp. Windchill Dew Point Humidity Pressure Visibility Wind Dir Wind Speed Gust Speed Precip Events Conditions
12:15 AM 51.8 °F - 42.8 °F 71% 29.63 in 10.0 mi WSW 13.8 mph - N/A   Overcast
12:35 AM 51.8 °F - 42.8 °F 71% 29.63 in 10.0 mi WSW 15.0 mph 21.9 mph N/A   Overcast
12:55 AM 50.0 °F - 42.8 °F 76% 29.63 in 10.0 mi WSW 16.1 mph - N/A   Scattered Clouds
1:15 AM 50.0 °F - 42.8 °F 76% 29.64 in 10.0 mi WSW 17.3 mph 24.2 mph N/A   Partly Cloudy
1:35 AM 50.0 °F - 42.8 °F 76% 29.64 in 10.0 mi WSW 13.8 mph 20.7 mph N/A   Mostly Cloudy
1:55 AM 50.0 °F - 42.8 °F 76% 29.65 in 10.0 mi WSW 16.1 mph 19.6 mph N/A   Mostly Cloudy
2:15 AM 50.0 °F - 41.0 °F 71% 29.66 in 10.0 mi WSW 13.8 mph 18.4 mph N/A   Overcast
2:35 AM 48.2 °F - 41.0 °F 76% 29.66 in 10.0 mi WSW 11.5 mph 17.3 mph N/A   Overcast
2:55 AM 48.2 °F - 39.2 °F 71% 29.66 in 10.0 mi WSW 10.4 mph - N/A   Mostly Cloudy
3:15 AM 48.2 °F - 39.2 °F 71% 29.66 in 10.0 mi WSW 12.7 mph 18.4 mph N/A   Mostly Cloudy
3:35 AM 48.2 °F - 37.4 °F 66% 29.66 in 10.0 mi WSW 15.0 mph 19.6 mph N/A   Mostly Cloudy
3:55 AM 46.4 °F 39.5 °F 37.4 °F 71% 29.66 in 10.0 mi WSW 17.3 mph 20.7 mph N/A   Partly Cloudy
4:15 AM 46.4 °F 40.1 °F 37.4 °F 71% 29.66 in 10.0 mi WSW 15.0 mph 25.3 mph N/A   Mostly Cloudy
4:35 AM 46.4 °F 39.5 °F 37.4 °F 71% 29.66 in 10.0 mi WSW 17.3 mph 21.9 mph N/A   Overcast
4:55 AM 46.4 °F 40.1 °F 37.4 °F 71% 29.66 in 10.0 mi WSW 15.0 mph - N/A   Mostly Cloudy
5:15 AM 44.6 °F 37.8 °F 37.4 °F 76% 29.66 in 10.0 mi SW 15.0 mph - N/A   Partly Cloudy
5:35 AM 44.6 °F 37.2 °F 33.8 °F 66% 29.68 in 10.0 mi WSW 17.3 mph 24.2 mph N/A   Clear
5:55 AM 44.6 °F 38.4 °F 33.8 °F 66% 29.68 in 10.0 mi WSW 12.7 mph - N/A   Clear
6:15 AM 42.8 °F 36.6 °F 35.6 °F 76% 29.68 in 10.0 mi WSW 11.5 mph - N/A   Clear
6:35 AM 42.8 °F 35.8 °F 35.6 °F 76% 29.69 in 10.0 mi WSW 13.8 mph 19.6 mph N/A   Clear
6:55 AM 42.8 °F 35.4 °F 35.6 °F 76% 29.69 in 10.0 mi WSW 15.0 mph - N/A   Clear
7:15 AM 42.8 °F 35.1 °F 33.8 °F 70% 29.70 in 10.0 mi WSW 16.1 mph - N/A   Clear
7:35 AM 41.0 °F 35.8 °F 32.0 °F 70% 29.71 in 10.0 mi WSW 8.1 mph - N/A   Clear
7:55 AM 39.2 °F - 33.8 °F 81% 29.72 in 10.0 mi Calm Calm - N/A   Clear
8:15 AM 41.0 °F 38.0 °F 33.8 °F 76% 29.74 in 10.0 mi WSW 4.6 mph - N/A   Clear
8:35 AM 42.8 °F 39.3 °F 30.2 °F 61% 29.74 in 10.0 mi WSW 5.8 mph - N/A   Clear
8:55 AM 44.6 °F 38.8 °F 30.2 °F 57% 29.75 in 10.0 mi West 11.5 mph 16.1 mph N/A   Clear
9:15 AM 44.6 °F 38.1 °F 30.2 °F 57% 29.75 in 10.0 mi WSW 13.8 mph 19.6 mph N/A   Clear
9:35 AM 44.6 °F 38.4 °F 30.2 °F 57% 29.76 in 10.0 mi WSW 12.7 mph 17.3 mph N/A   Clear
9:55 AM 44.6 °F 39.2 °F 28.4 °F 53% 29.76 in 10.0 mi WSW 10.4 mph 19.6 mph N/A   Clear
10:15 AM 46.4 °F 40.4 °F 28.4 °F 50% 29.76 in 10.0 mi WSW 13.8 mph 23.0 mph N/A   Clear
10:35 AM 48.2 °F - 28.4 °F 46% 29.77 in 10.0 mi West 13.8 mph - N/A   Clear
10:55 AM 46.4 °F 39.5 °F 26.6 °F 46% 29.76 in 10.0 mi West 17.3 mph 26.5 mph N/A   Clear
11:15 AM 48.2 °F - 28.4 °F 46% 29.76 in 10.0 mi WSW 19.6 mph 25.3 mph N/A   Clear
11:35 AM 48.2 °F - 28.4 °F 46% 29.77 in 10.0 mi WSW 20.7 mph 26.5 mph N/A   Clear
11:55 AM 48.2 °F - 26.6 °F 43% 29.77 in 10.0 mi WSW 18.4 mph 25.3 mph N/A   Clear
12:15 PM 48.2 °F - 26.6 °F 43% 29.77 in 10.0 mi West 18.4 mph - N/A   Scattered Clouds
12:35 PM 50.0 °F - 24.8 °F 37% 29.77 in 10.0 mi WSW 18.4 mph 26.5 mph N/A   Scattered Clouds
12:55 PM 50.0 °F - 24.8 °F 37% 29.77 in 10.0 mi West 19.6 mph 26.5 mph N/A   Partly Cloudy
1:15 PM 48.2 °F - 23.0 °F 37% 29.77 in 10.0 mi West 18.4 mph 24.2 mph N/A   Mostly Cloudy
1:35 PM 50.0 °F - 21.2 °F 32% 29.76 in 10.0 mi WSW 18.4 mph 25.3 mph N/A   Mostly Cloudy
1:55 PM 51.8 °F - 21.2 °F 30% 29.77 in 10.0 mi SW 21.9 mph 28.8 mph N/A   Mostly Cloudy
2:15 PM 48.2 °F - 21.2 °F 34% 29.77 in 10.0 mi SW 20.7 mph 28.8 mph N/A   Overcast
2:35 PM 48.2 °F - 21.2 °F 34% 29.77 in 10.0 mi WSW 24.2 mph 29.9 mph N/A   Mostly Cloudy
2:55 PM 51.8 °F - 21.2 °F 30% 29.78 in 10.0 mi WSW 19.6 mph 27.6 mph N/A   Mostly Cloudy
3:15 PM 50.0 °F - 21.2 °F 32% 29.78 in 10.0 mi WSW 20.7 mph 28.8 mph N/A   Scattered Clouds
3:35 PM 50.0 °F - 19.4 °F 30% 29.78 in 10.0 mi WSW 18.4 mph 26.5 mph N/A   Mostly Cloudy
3:55 PM 48.2 °F - 19.4 °F 32% 29.78 in 10.0 mi WSW 16.1 mph 23.0 mph N/A   Mostly Cloudy
4:15 PM 48.2 °F - 21.2 °F 34% 29.78 in 10.0 mi WSW 17.3 mph 23.0 mph N/A   Mostly Cloudy
4:35 PM 48.2 °F - 21.2 °F 34% 29.78 in 10.0 mi WSW 24.2 mph 28.8 mph N/A   Mostly Cloudy
4:55 PM 48.2 °F - 19.4 °F 32% 29.78 in 10.0 mi WSW 19.6 mph 31.1 mph N/A   Scattered Clouds
5:15 PM 46.4 °F 39.5 °F 19.4 °F 34% 29.79 in 10.0 mi WSW 17.3 mph - N/A   Clear
5:35 PM 46.4 °F 39.8 °F 19.4 °F 34% 29.79 in 10.0 mi WSW 16.1 mph 21.9 mph N/A   Clear
5:55 PM 44.6 °F 37.8 °F 21.2 °F 39% 29.79 in 10.0 mi WSW 15.0 mph 19.6 mph N/A   Clear
6:15 PM 42.8 °F 36.6 °F 21.2 °F 42% 29.79 in 10.0 mi WSW 11.5 mph 19.6 mph N/A   Clear
6:35 PM 42.8 °F 37.5 °F 21.2 °F 42% 29.80 in 10.0 mi SW 9.2 mph - N/A   Clear
6:55 PM 39.2 °F 32.0 °F 21.2 °F 49% 29.80 in 10.0 mi SW 11.5 mph - N/A   Clear
7:15 PM 39.2 °F 32.0 °F 23.0 °F 52% 29.81 in 10.0 mi SW 11.5 mph - N/A   Clear
7:35 PM 41.0 °F 33.5 °F 28.4 °F 61% 29.82 in 10.0 mi South 13.8 mph 19.6 mph N/A   Clear
7:55 PM 39.2 °F 31.2 °F 28.4 °F 65% 29.82 in 10.0 mi SSW 13.8 mph - N/A   Clear
8:15 PM 37.4 °F 32.1 °F 28.4 °F 70% 29.83 in 10.0 mi SW 6.9 mph - N/A   Clear
8:35 PM 35.6 °F - 28.4 °F 75% 29.83 in 10.0 mi Calm Calm - N/A   Clear
8:55 PM 37.4 °F - 28.4 °F 70% 29.84 in 10.0 mi Calm Calm - N/A   Clear
9:15 PM 37.4 °F 33.8 °F 28.4 °F 70% 29.84 in 10.0 mi South 4.6 mph - N/A   Partly Cloudy
9:35 PM 37.4 °F 31.4 °F 30.2 °F 75% 29.84 in 10.0 mi South 8.1 mph - N/A   Mostly Cloudy
9:55 PM 35.6 °F 32.8 °F 28.4 °F 75% 29.84 in 10.0 mi West 3.5 mph - N/A   Mostly Cloudy
10:15 PM 37.4 °F - 28.4 °F 70% 29.84 in 10.0 mi Calm Calm - N/A   Mostly Cloudy
10:35 PM 35.6 °F - 28.4 °F 75% 29.85 in 10.0 mi Calm Calm - N/A   Mostly Cloudy
10:55 PM 37.4 °F - 30.2 °F 75% 29.84 in 10.0 mi Calm Calm - N/A   Overcast
11:15 PM 39.2 °F 33.0 °F 30.2 °F 70% 29.84 in 10.0 mi South 9.2 mph - N/A   Overcast
11:35 PM 39.2 °F 33.0 °F 30.2 °F 70% 29.84 in 10.0 mi South 9.2 mph - N/A   Overcast
11:55 PM 41.0 °F 33.9 °F 30.2 °F 65% 29.84 in 10.0 mi South 12.7 mph - N/A   Overcast